Theta_e
292 292 292 293 293 293 293 293 293 294 294 294 293 294 293 294 294 293 293 293 293 293 293 293 293 293 293 293 292 291 291 291 290 289 289 290 289 289 289 288 288 288
291 291 291 292 292 292 292 293 293 293 293 293 294 293 294 294 294 294 293 292 292 292 292 292 292 292 291 291 290 290 289 288 288 290 289 288 288 288 288 288 287 288
291 290 290 290 290 290 291 291 291 292 292 292 293 293 294 294 294 293 293 291 291 292 292 292 291 291 290 289 288 289 288 287 288 287 287 287 287 287 288 287 287 287
290 289 289 289 290 289 290 290 290 290 290 290 291 291 292 292 292 291 291 291 289 288 288 288 289 289 288 288 288 288 288 287 287 287 286 286 286 286 287 286 287 287
287 287 287 288 289 289 289 288 288 289 289 289 289 290 290 290 289 289 289 289 289 288 289 288 288 288 288 288 287 288 287 287 287 286 286 286 286 286 286 286 286 286
286 286 286 287 287 288 287 287 287 287 287 287 288 288 288 288 288 288 288 288 288 288 288 288 288 288 288 288 288 288 287 287 287 286 286 286 286 285 286 286 285 286
286 286 286 286 285 286 285 285 285 286 286 286 286 286 287 287 287 287 287 287 287 288 288 288 288 288 288 287 287 287 287 287 286 286 286 286 286 286 285 285 285 285
286 286 286 286 285 284 283 283 284 284 285 285 285 286 286 286 286 286 287 287 287 287 287 287 287 287 287 287 287 287 286 287 287 286 286 286 285 285 286 286 285 285
285 284 284 284 284 284 284 284 284 284 284 284 284 285 286 286 286 286 286 286 286 286 286 286 287 287 287 287 287 286 286 286 286 286 286 286 285 285 286 286 285 285
283 283 283 283 284 284 284 284 284 284 284 283 283 283 284 285 285 285 286 285 286 286 286 286 286 286 286 286 286 286 286 286 286 285 286 286 286 286 285 285 285 285
282 282 281 282 282 283 283 283 284 284 284 283 283 283 283 284 285 285 285 285 285 285 285 285 286 286 286 286 286 286 286 286 286 286 286 285 286 286 286 285 285 285
281 281 281 280 281 282 282 283 283 283 283 283 283 283 282 283 284 284 284 284 284 284 284 285 285 286 285 285 285 285 286 286 286 286 286 285 285 285 285 286 285 285
280 280 281 281 281 281 281 280 281 281 281 282 282 282 282 282 282 283 283 283 284 283 284 284 284 285 285 285 285 285 285 285 285 285 285 285 285 285 285 285 285 285
280 281 281 281 282 282 281 281 280 280 281 281 281 281 281 282 282 283 283 283 283 283 283 283 283 284 284 285 285 285 285 285 285 285 285 285 285 285 285 285 285 285
281 280 280 280 281 281 281 281 281 281 281 281 281 281 282 281 282 282 282 282 282 282 282 283 283 284 284 284 284 284 285 285 285 285 285 285 285 285 285 285 285 285
280 280 281 281 281 281 281 281 282 282 282 281 281 281 281 281 282 282 281 281 281 281 281 282 283 284 285 287 288 286 285 285 285 285 285 285 284 284 285 285 285 285
279 280 280 280 280 280 280 280 281 281 281 281 281 281 281 281 281 281 281 281 281 281 281 282 282 283 286 288 289 289 287 285 285 285 285 285 284 284 284 285 285 285
281 281 280 280 280 280 280 281 281 280 280 280 280 280 281 281 280 280 281 281 281 281 281 281 281 284 287 288 288 289 289 286 285 284 284 284 284 284 284 284 285 285
281 280 280 280 281 281 281 281 280 280 280 280 280 280 280 280 280 280 280 280 280 280 280 281 281 285 287 287 288 288 289 288 285 285 284 284 284 284 284 284 284 284
280 280 280 280 280 280 280 280 280 280 280 280 280 280 280 280 280 280 280 280 280 280 280 280 280 284 286 287 287 288 288 288 284 284 284 284 284 284 284 284 284 284
279 278 278 279 279 279 279 279 279 279 279 280 280 279 279 279 279 279 280 280 280 280 280 280 280 284 286 286 287 287 288 288 284 284 283 283 283 284 284 284 284 284
277 277 277 277 277 277 277 277 277 277 277 278 279 279 279 279 279 279 279 279 280 280 279 279 280 284 285 285 286 286 287 285 283 282 281 282 282 283 283 283 284 284
275 274 274 274 274 274 274 274 274 274 275 276 275 276 276 277 277 278 279 279 279 279 279 279 279 282 284 285 285 286 285 283 283 281 281 281 281 281 282 283 283 283
272 272 272 272 271 270 270 270 270 271 271 272 272 273 273 275 276 277 278 278 278 278 278 278 279 281 284 284 285 285 285 282 281 280 280 280 280 281 281 282 283 284
269 269 268 267 266 266 266 266 267 267 269 270 271 272 272 274 275 275 276 277 277 278 279 279 278 280 283 284 285 285 284 282 281 280 279 279 279 279 280 281 281 283
266 265 265 265 264 264 264 264 265 266 266 267 267 268 269 270 271 272 272 274 275 276 276 277 277 278 279 282 283 284 284 282 281 279 278 278 278 279 279 279 280 281
Wind_Speed
9 9 9 8 8 7 8 8 7 7 6 7 6 6 6 5 6 4 5 4 5 5 5 6 6 6 6 6 6 7 7 8 7 6 8 10 11 12 12 12 10 9
9 9 8 7 7 8 8 8 9 8 8 7 7 7 7 6 6 6 4 4 4 4 5 5 5 6 6 6 6 7 7 7 8 5 7 9 10 9 12 12 10 9
9 9 9 8 8 8 9 9 9 9 9 9 9 9 8 7 7 6 6 4 4 4 4 5 5 5 6 6 6 7 7 7 8 7 7 8 8 9 11 10 9 10
9 9 8 6 6 6 6 8 8 8 8 9 9 9 9 8 8 9 8 6 5 5 5 5 5 6 5 6 6 7 6 7 7 6 8 7 7 8 9 8 10 10
4 3 3 3 4 5 7 8 9 8 9 8 9 9 9 9 9 9 8 8 6 6 6 6 5 5 6 6 5 7 6 7 6 6 7 8 7 7 7 7 9 12
3 2 4 6 8 9 9 9 8 8 8 8 9 8 8 9 8 8 8 8 8 7 7 7 6 6 6 6 6 6 6 7 7 6 8 9 8 7 6 7 9 11
7 8 10 9 9 8 8 7 7 7 7 7 7 8 7 9 9 9 8 8 8 7 7 7 7 7 6 5 6 6 7 6 6 7 8 8 7 9 7 7 9 10
7 7 7 8 8 7 7 7 6 6 6 7 7 8 7 8 8 8 8 8 7 7 7 7 7 7 7 5 6 6 7 6 6 7 8 8 7 9 9 8 8 10
6 6 5 6 7 7 7 7 6 6 6 6 7 8 7 7 8 8 9 8 8 7 7 6 7 7 7 6 6 6 7 7 6 7 8 9 9 10 10 9 10 10
5 5 5 5 5 5 5 6 6 5 5 6 6 6 8 7 7 7 7 8 8 8 7 7 7 7 7 7 7 6 7 7 7 7 8 9 10 10 10 9 10 10
5 4 4 4 4 4 4 4 4 5 5 5 6 7 6 6 7 6 7 7 8 8 8 8 8 8 8 8 7 6 7 7 7 7 8 9 10 10 10 10 11 11
5 4 4 4 4 4 4 4 4 4 4 4 4 5 6 6 7 7 6 7 7 7 8 8 8 8 8 8 7 6 6 7 7 8 8 9 9 9 10 10 11 11
5 5 5 5 5 5 4 4 4 4 4 5 5 5 7 7 6 6 6 6 7 6 7 7 8 8 9 8 8 7 6 6 7 7 8 8 8 9 9 10 11 11
6 5 5 6 6 6 5 5 5 4 5 5 4 5 6 7 8 9 9 6 7 6 7 6 7 7 8 8 7 7 7 6 6 7 8 8 9 9 9 10 10 11
5 5 5 5 6 6 6 7 7 7 7 6 5 6 6 6 6 7 8 9 9 8 7 6 7 7 6 7 7 8 7 7 8 8 8 9 9 9 9 10 10 10
6 5 6 6 7 8 8 8 8 9 9 9 9 8 8 8 9 9 7 7 8 9 8 7 7 6 8 13 12 8 7 7 7 8 8 8 9 10 10 10 10 9
5 6 6 7 8 7 7 8 9 9 9 10 11 10 10 9 9 10 10 10 11 10 9 9 8 8 12 13 15 17 10 7 7 8 7 9 9 10 11 11 10 10
7 8 8 8 7 7 8 8 8 8 8 9 9 10 11 9 11 12 11 11 10 10 11 10 9 10 15 15 16 16 14 9 7 7 8 8 9 10 10 10 10 10
9 9 10 9 9 10 9 8 9 9 10 10 10 10 8 10 12 13 13 12 11 12 12 11 10 11 15 17 17 17 17 13 8 8 9 9 10 10 10 10 9 10
10 10 10 10 9 9 9 10 11 11 10 9 8 8 10 11 12 13 14 14 13 13 12 12 12 12 17 18 19 19 18 15 9 10 9 10 11 11 10 10 10 10
10 11 11 11 11 11 10 10 10 10 10 10 9 10 11 12 12 13 14 14 14 13 13 13 13 17 19 20 20 21 22 18 11 10 9 9 10 10 11 12 12 11
11 10 11 12 13 13 13 13 13 12 13 12 12 11 11 12 13 13 14 15 15 15 14 16 15 19 21 21 23 23 24 14 11 11 10 10 10 10 10 11 11 11
11 12 13 14 13 13 13 13 14 15 14 11 13 13 14 14 15 14 14 15 16 16 16 16 16 18 21 22 22 24 19 12 11 10 11 12 12 11 10 11 11 11
11 11 12 13 13 14 15 15 15 14 14 14 13 15 15 15 12 14 13 15 16 17 16 16 17 17 22 23 24 25 20 13 11 11 12 12 12 13 11 10 12 18
11 12 13 13 14 14 14 15 15 14 13 13 12 13 14 14 12 14 14 14 14 16 20 20 18 18 22 24 26 25 19 12 12 11 12 13 12 13 12 11 12 13
11 12 12 12 13 14 13 14 13 13 14 12 15 13 14 14 15 15 16 16 14 15 17 17 18 18 18 25 26 28 28 17 11 12 13 15 14 13 12 11 12 12
Wind_Direction
8 5 2 359 354 358 348 347 343 344 338 336 335 328 333 321 327 286 237 231 229 234 244 247 246 247 246 245 243 240 237 240 239 225 225 224 229 228 231 231 227 218
7 5 4 4 3 2 356 352 348 349 342 342 337 333 330 332 321 323 279 242 243 242 249 254 254 250 249 245 244 242 245 242 243 228 226 227 230 228 235 234 234 235
4 3 4 6 4 3 1 359 2 358 355 347 346 344 335 333 327 327 309 263 253 259 257 255 257 254 250 248 244 241 240 243 247 243 235 232 226 226 233 232 235 235
359 357 354 353 355 6 3 7 7 5 354 352 347 340 339 334 333 333 327 313 297 283 274 269 259 257 253 250 249 248 244 242 242 240 245 249 237 230 232 227 235 238
325 318 313 323 351 19 18 17 13 3 358 350 342 342 338 334 333 332 329 320 310 292 284 275 266 261 254 254 246 249 250 250 252 245 245 248 245 234 235 224 233 238
291 311 351 7 8 17 15 13 7 0 355 354 346 337 336 333 329 325 322 321 318 307 293 284 274 264 256 250 249 244 243 247 249 246 248 247 248 239 236 228 232 238
343 355 2 4 9 13 15 4 0 356 353 347 338 344 341 337 333 326 320 317 316 315 309 298 283 274 261 250 246 247 244 241 246 243 247 252 250 252 245 235 236 238
342 350 358 354 3 2 4 358 355 353 347 346 349 338 345 337 332 325 324 320 314 308 308 304 297 285 272 255 247 248 248 239 244 243 248 249 244 250 248 245 242 242
333 337 347 346 350 347 351 345 345 341 345 349 338 337 337 336 329 326 323 324 320 313 307 301 294 292 284 270 258 247 247 246 239 239 243 247 247 246 245 244 247 245
334 327 341 335 336 319 326 320 325 325 328 335 327 328 331 325 323 322 324 324 324 321 318 308 300 290 285 277 267 258 253 250 246 242 241 245 246 248 247 243 242 246
318 322 329 325 322 314 310 308 304 305 312 316 319 320 318 317 315 319 318 321 322 320 316 315 307 298 289 281 270 262 257 255 253 249 247 246 247 248 246 243 243 242
289 297 300 294 293 293 297 301 302 301 302 296 286 292 299 303 303 307 308 309 311 311 309 306 306 302 294 285 278 273 268 262 257 254 253 251 250 250 248 246 246 245
283 283 282 288 283 274 270 279 280 284 295 299 298 300 303 297 290 290 290 288 290 291 293 293 296 295 292 288 286 284 280 276 270 265 262 260 257 254 250 248 248 247
281 279 287 288 291 291 292 290 282 272 270 268 277 290 295 299 303 303 297 287 279 278 275 277 278 283 285 285 283 283 282 280 278 275 275 271 268 263 258 253 251 249
283 282 278 282 283 286 291 293 294 294 293 288 283 284 277 267 270 277 287 290 287 280 276 270 272 272 273 279 285 283 278 277 277 276 276 278 277 275 270 265 260 255
295 301 301 298 298 293 291 293 297 299 299 298 295 290 290 292 294 287 273 272 277 278 274 270 265 263 266 272 274 272 273 271 269 267 268 269 271 272 271 269 270 267
293 286 285 284 277 279 284 287 286 286 289 292 296 297 294 292 286 287 289 291 290 286 279 275 268 259 259 266 275 280 278 270 267 269 262 261 263 264 266 264 263 264
298 296 293 286 283 281 282 281 278 276 277 278 283 289 290 291 291 288 287 284 280 279 278 276 275 267 265 263 267 270 271 268 264 263 264 260 259 258 260 261 260 258
297 295 293 293 292 289 285 283 280 279 280 280 278 277 283 287 287 290 287 283 277 276 276 272 270 263 268 270 266 261 262 264 262 257 257 260 259 259 259 257 256 256
299 298 294 292 292 291 289 286 284 281 279 276 278 281 281 283 283 282 283 282 279 274 270 269 270 267 267 268 269 265 259 257 253 251 247 250 253 254 256 258 254 253
304 303 302 302 302 302 300 295 293 294 292 291 289 286 285 283 283 282 278 278 278 276 275 272 268 261 261 262 264 266 267 266 259 252 247 244 244 244 248 250 253 253
309 311 313 315 313 312 308 305 305 303 303 303 300 296 291 288 283 279 279 278 275 274 275 274 272 265 261 259 260 261 263 263 260 258 258 253 246 241 238 241 245 247
321 319 313 309 310 311 312 312 312 310 308 310 303 299 294 290 285 282 281 278 276 274 272 272 274 273 270 265 261 261 260 256 251 253 256 259 259 252 244 242 242 239
319 318 318 321 323 319 317 314 312 308 305 307 302 300 293 288 285 283 277 275 273 273 269 270 271 269 270 270 266 262 254 250 248 251 251 250 255 255 254 251 243 242
331 329 324 320 315 313 312 309 308 306 303 303 296 292 290 292 290 287 285 280 275 273 273 271 270 269 266 267 267 266 262 258 257 254 255 252 249 251 248 246 249 246
324 321 316 314 313 312 311 306 305 306 305 304 300 297 295 291 289 286 285 284 283 281 278 274 274 272 269 268 269 270 270 267 259 255 253 254 252 252 251 244 240 243